{"data":{"norad_id":59571,"epoch":"2026-09-21T22:00:03.000096Z","epoch_age_seconds":45829,"freshness":"FRESH","line1":"1 59571U 24076H   26264.91670139 -.00030329  00000+0 -10964-2 0  9992","line2":"2 59571  43.0021 340.4065 0001635 273.8846 235.6474 15.27599967  5819","mean_motion":15.27599967,"eccentricity":0.0001635,"inclination_deg":43.0021,"raan_deg":340.4065,"arg_perigee_deg":273.8846,"mean_anomaly_deg":235.6474,"bstar":-0.0010964,"rev_number":581,"period_min":94.265516568972,"perigee_km":481.86751415839,"apogee_km":484.11110246121,"semimajor_km":6861.1263083098,"source":"CELESTRAK","updated_at":"2026-09-22T09:00:49.001885Z"}}